Location: Maddington
(51.2000°N, 1.9167°W)
Time: 14:53:04
(UTC+00:00)

NOSS 2-2 (E) - Pass Details

Date: 19 January 2021
Orbit: 462 x 1744 km, 63.3° (Epoch: 03 March)

Event Time Altitude Azimuth Distance (km) Brightness Sun altitude
Rises 17:11:10 0° 286° (WNW) 2,599 7.6 -5.6°
Reaches altitude 10° 17:13:40 10° 306° (NW) 1,817 6.4 -6.0°
Maximum altitude 17:16:35 19° 353° (N) 1,471 5.3 -6.4°
Drops below altitude 10° 17:20:03 10° 39° (NE) 2,191 5.8 -6.9°
Enters shadow 17:21:04 - 46° (NE) 2,525 6.1 -7.1°
